AYAN-21 (48944 NORAD) Tracking and Keplerian Element Data

This shows tracking and keplerian element data for the satellite.

Feedback or suggestion? Click here.




ElementValue
Catalog48944
NameAYAN-21
Epoch Orbit1389
Epoch Day268.62879931
Epoch Year2021
RAAN36.3217
Inclination97.5241
Eccentricity0.0014734
Argument of Perigee290.9226
Mean Anonmoly69.0428
Mean Motion15.14210128
Decay Rate2.367E-05
L11 48944U 21059BT 21268.62879931 .00002367 00000-0 13297-3 0 9993
L22 48944 97.5241 36.3217 0014734 290.9226 69.0428 15.14210128 13895

Live tracking and technical data element details for AYAN-21 (NORAD 48944). AYAN-21 can be tracked NOW for your location showing map with azimuth and elevation plus other details from your city location.

Track the satellite on the map from your city or location and see movement details for azimuth, elevation, latitude, longitude, range, height, and movement on the map or in text.







IsCatalogInMostPopularTable: catalog: 48944, numindb: 18
Update: records affected: 1



GetName: 48944 AYAN-21

Hit Count: updated at: Sun, 26 Sep 2021 16:16:42 GMT